Вернуться в каталог

KUIPER-00294

АктивенСвязьLEO
NORAD 68594·PAYLOAD·🇺🇸 United States

Запущен Apr 4, 2026 с Cape Canaveral Space Force Station

Loading…

Ближайшие Пролёты (ближайшие 24 часа)

TLE

СвежийSource: CelesTrak SupGP

Эпоха: Sep 15, 2026, 05:28 UTC

1 68594C 26072X   26258.22843750  .00004210  00000+0  55115-3 0  2587
2 68594  51.8974 137.4867 0000772 105.3188 247.4982 14.79922250    14

Отслеживайте KUIPER-00294 в реальном времени с AllMySat

Download on the App Store